Regional Weather Roundup
Issued by NWS

Home | Current Version | Previous Version | Graphics & Text | Print | Product List | Glossary On
Versions: 1 2 3 4 5 6 7 8 9 10 11 12 13 14 15 16 17 18 19 20 21 22 23 24 25 26 27 28 29 30 31 32 33 34 35 36 37 38 39 40 41 42 43 44 45 46 47 48 49 50
000
ASUS43 KTOP 222059
RWRKS

WEATHER ROUNDUP FOR KANSAS
NATIONAL WEATHER SERVICE GOODLAND KS
300 PM CST WED NOV 22 2017

NOTE:  "FAIR" INDICATES FEW OR NO CLOUDS BELOW 12,000 FEET WITH NO
SIGNIFICANT WEATHER AND/OR OBSTRUCTIONS TO VISIBILITY.

KSZ001>006-013>018-027>032-041>047-222200-
NORTHWEST KANSAS

CITY           SKY/WX    TMP DP  RH WIND       PRES   REMARKS
GOODLAND       SUNNY     71  36  27 NW16      30.11F
HAYS           SUNNY     60  26  27 SW20      30.13F
HILL CITY      SUNNY     64  33  31 SW12      30.11F
RUSSELL        SUNNY     57  23  26 S22       30.13F
$$

KSZ061>065-074>080-084>089-222200-
SOUTHWEST KANSAS

CITY           SKY/WX    TMP DP  RH WIND       PRES   REMARKS
DODGE CITY     SUNNY     61  29  29 SW17G28   30.17F
GARDEN CITY    SUNNY     59  32  36 SW10      30.16F
GREAT BEND     SUNNY     56  23  27 SW20G25   30.17F
LIBERAL        CLOUDY    64  32  30 SW9       30.19F
$$

KSZ066>073-081>083-090>101-222200-
SOUTHEAST KANSAS

CITY           SKY/WX    TMP DP  RH WIND       PRES   REMARKS
CHANUTE        SUNNY     43  17  35 SW6       30.30F
COFFEYVILLE    SUNNY     45  18  34 CALM      30.31F
HUTCHINSON     SUNNY     50  18  28 S16       30.21F
MEDICINE LODGE   N/A     49  18  29 S12       30.23F
NEWTON         SUNNY     46  19  34 S10       30.25F
PARSONS        SUNNY     44  19  36 VRB3      30.32F
WICHITA INTL   MOSUNNY   47  19  33 S10       30.26F
WICHITA MCCONL SUNNY     46  16  29 S9        30.26F
WINFIELD       SUNNY     46  19  34 S6        30.29F
$$

KSZ007>012-019>026-033>040-048>060-102>105-222200-
NORTHEAST KANSAS

CITY           SKY/WX    TMP DP  RH WIND       PRES   REMARKS
CONCORDIA      SUNNY     47  17  30 S18       30.16F
EMPORIA        SUNNY     45  14  28 S7        30.26F
LAWRENCE       MOSUNNY   43  16  33 S8        30.28F
MANHATTAN      SUNNY     48  15  26 S10       30.21F
OLATHE IND     SUNNY     41  15  35 S8        30.28F
OLATHE EXE     SUNNY     40  15  36 SW6       30.28
SALINA         SUNNY     51  19  28 S14       30.19F
TOPEKA BILLARD MOSUNNY   44  16  32 S6        30.26F
TOPEKA FORBES  CLOUDY    44  16  32 S9        30.26F
$$



USA.gov is the U.S. government's official web portal to all federal, state and local government web resources and services.